When you browse on this site, cookies collect data to enhance your experience and personalize the content and advertising you see.
Visit our Privacy Policy to learn more. By continuing to use the site, you agree to this use of cookies and data.
  • In Austria
  • List of Countries
  • For 7 days
  • Water Temperature
  • Weather Map
  • News
  • Weather Widgets
  • user-avatar
    Login

    Hourly Weather Cuautepec de Hinojosa

    Today, 22 January, Wednesday

    Time Temperature Precipitation Wind Pressure Humidity
    00:00 +8°C° 0 mm 1 mps 581 mmHg 89%
    01:00 +8°C° 0 mm 1 mps 580 mmHg 89%
    02:00 +7°C° 0 mm 1 mps 580 mmHg 88%
    03:00 +6°C° 0 mm 2 mps 580 mmHg 87%
    04:00 +6°C° 0 mm 2 mps 579 mmHg 85%
    05:00 +6°C° 0 mm 2 mps 579 mmHg 83%
    06:00 +8°C° 0 mm 2 mps 580 mmHg 75%
    07:00 +10°C° 0 mm 2 mps 582 mmHg 68%
    08:00 +13°C° 0 mm 2 mps 583 mmHg 60%
    09:00 +15°C° 0 mm 2 mps 583 mmHg 53%
    10:00 +17°C° 0 mm 2 mps 584 mmHg 46%
    11:00 +19°C° 0 mm 3 mps 584 mmHg 39%
    12:00 +19°C° 0 mm 3 mps 584 mmHg 38%
    13:00 +20°C° 0 mm 3 mps 583 mmHg 36%
    14:00 +21°C° 0 mm 3 mps 582 mmHg 35%
    15:00 +19°C° 0 mm 2 mps 582 mmHg 44%
    16:00 +17°C° 0 mm 2 mps 581 mmHg 53%
    17:00 +16°C° 0 mm 1 mps 580 mmHg 62%
    18:00 +15°C° 0 mm 1 mps 580 mmHg 64%
    19:00 +14°C° 0 mm 1 mps 580 mmHg 65%
    20:00 +13°C° 0 mm 1 mps 581 mmHg 67%
    21:00 +13°C° 0 mm 1 mps 581 mmHg 68%
    22:00 +13°C° 0 mm 1 mps 581 mmHg 69%
    23:00 +13°C° 0 mm 1 mps 581 mmHg 70%

    Tomorrow, 23 January, Thursday

    Time Temperature Precipitation Wind Pressure Humidity
    00:00 +12°C° 0 mm 1 mps 580 mmHg 75%
    01:00 +11°C° 0 mm 0 mps 579 mmHg 81%
    02:00 +10°C° 0 mm 0 mps 579 mmHg 87%
    03:00 +10°C° 0 mm 0 mps 579 mmHg 87%
    04:00 +11°C° 0 mm 1 mps 579 mmHg 87%
    05:00 +11°C° 0 mm 1 mps 579 mmHg 87%
    06:00 +12°C° 0 mm 1 mps 580 mmHg 81%
    07:00 +13°C° 0 mm 1 mps 581 mmHg 76%
    08:00 +14°C° 0 mm 1 mps 582 mmHg 70%
    09:00 +15°C° 0.2 mm 1 mps 582 mmHg 67%
    10:00 +16°C° 0.2 mm 2 mps 582 mmHg 63%
    11:00 +17°C° 0.2 mm 2 mps 582 mmHg 59%
    12:00 +17°C° 0.6 mm 2 mps 581 mmHg 63%
    13:00 +16°C° 0.6 mm 2 mps 580 mmHg 66%
    14:00 +16°C° 0.6 mm 2 mps 580 mmHg 69%
    15:00 +15°C° 0.8 mm 2 mps 579 mmHg 75%
    16:00 +13°C° 0.8 mm 2 mps 579 mmHg 82%
    17:00 +12°C° 0.8 mm 2 mps 578 mmHg 88%
    18:00 +11°C° 1.5 mm 1 mps 579 mmHg 89%
    19:00 +11°C° 1.5 mm 1 mps 579 mmHg 89%
    20:00 +10°C° 1.5 mm 1 mps 579 mmHg 90%
    21:00 +10°C° 0.7 mm 1 mps 579 mmHg 89%
    22:00 +10°C° 0.7 mm 1 mps 579 mmHg 88%
    23:00 +11°C° 0.7 mm 1 mps 579 mmHg 88%

    Day after tomorrow, 24 January, Friday

    Time Temperature Precipitation Wind Pressure Humidity
    00:00 +11°C° 0.2 mm 1 mps 579 mmHg 88%
    01:00 +10°C° 0.2 mm 1 mps 579 mmHg 88%
    02:00 +9°C° 0.2 mm 0 mps 579 mmHg 87%
    03:00 +9°C° 0.1 mm 0 mps 579 mmHg 88%
    04:00 +9°C° 0.1 mm 0 mps 579 mmHg 89%
    05:00 +9°C° 0.1 mm 0 mps 579 mmHg 90%
    06:00 +10°C° 0 mm 1 mps 580 mmHg 88%
    07:00 +11°C° 0 mm 1 mps 581 mmHg 85%
    08:00 +12°C° 0 mm 1 mps 581 mmHg 82%
    09:00 +13°C° 0.1 mm 1 mps 582 mmHg 80%
    10:00 +13°C° 0.1 mm 1 mps 582 mmHg 77%
    11:00 +14°C° 0.1 mm 1 mps 582 mmHg 75%
    12:00 +14°C° 0.2 mm 1 mps 581 mmHg 76%
    13:00 +14°C° 0.2 mm 2 mps 581 mmHg 77%
    14:00 +14°C° 0.2 mm 2 mps 580 mmHg 79%
    15:00 +13°C° 0.1 mm 2 mps 580 mmHg 83%
    16:00 +13°C° 0.1 mm 2 mps 580 mmHg 87%
    17:00 +12°C° 0.1 mm 2 mps 579 mmHg 91%
    18:00 +12°C° 0.1 mm 2 mps 580 mmHg 93%
    19:00 +12°C° 0.1 mm 1 mps 580 mmHg 94%
    20:00 +11°C° 0.1 mm 1 mps 581 mmHg 95%
    21:00 +11°C° 0 mm 1 mps 580 mmHg 95%
    22:00 +11°C° 0 mm 1 mps 580 mmHg 95%
    23:00 +11°C° 0 mm 1 mps 580 mmHg 95%

    25 January, Saturday

    Time Temperature Precipitation Wind Pressure Humidity
    00:00 +10°C° 0 mm 1 mps 580 mmHg 94%
    01:00 +10°C° 0 mm 1 mps 579 mmHg 94%
    02:00 +10°C° 0 mm 1 mps 579 mmHg 93%
    03:00 +10°C° 0 mm 1 mps 579 mmHg 93%
    04:00 +9°C° 0 mm 1 mps 579 mmHg 93%
    05:00 +9°C° 0 mm 1 mps 579 mmHg 93%
    06:00 +11°C° 0 mm 1 mps 580 mmHg 88%
    07:00 +12°C° 0 mm 1 mps 581 mmHg 83%
    08:00 +13°C° 0 mm 1 mps 582 mmHg 78%
    09:00 +15°C° 0 mm 2 mps 583 mmHg 68%
    10:00 +17°C° 0 mm 2 mps 583 mmHg 59%
    11:00 +19°C° 0 mm 2 mps 584 mmHg 50%
    12:00 +19°C° 0.1 mm 2 mps 584 mmHg 50%
    13:00 +19°C° 0.1 mm 2 mps 583 mmHg 51%
    14:00 +19°C° 0.1 mm 3 mps 582 mmHg 51%
    15:00 +18°C° 0.2 mm 2 mps 582 mmHg 59%
    16:00 +17°C° 0.2 mm 2 mps 581 mmHg 66%
    17:00 +16°C° 0.2 mm 2 mps 580 mmHg 74%
    18:00 +15°C° 0.1 mm 1 mps 580 mmHg 76%
    19:00 +14°C° 0.1 mm 1 mps 581 mmHg 79%
    20:00 +13°C° 0.1 mm 1 mps 581 mmHg 81%
    21:00 +12°C° 0 mm 1 mps 580 mmHg 81%
    22:00 +12°C° 0 mm 1 mps 580 mmHg 81%
    23:00 +12°C° 0 mm 2 mps 580 mmHg 80%

    26 January, Sunday

    Time Temperature Precipitation Wind Pressure Humidity
    00:00 +10°C° 0 mm 2 mps 580 mmHg 82%
    01:00 +10°C° 0 mm 2 mps 579 mmHg 83%
    02:00 +10°C° 0 mm 2 mps 579 mmHg 84%
    03:00 +9°C° 0 mm 2 mps 579 mmHg 85%
    04:00 +9°C° 0 mm 2 mps 579 mmHg 86%
    05:00 +9°C° 0 mm 2 mps 579 mmHg 86%
    06:00 +11°C° 0 mm 1 mps 580 mmHg 81%
    07:00 +13°C° 0 mm 1 mps 581 mmHg 77%
    08:00 +14°C° 0 mm 1 mps 582 mmHg 72%
    09:00 +16°C° 0 mm 2 mps 582 mmHg 62%
    10:00 +18°C° 0 mm 2 mps 583 mmHg 53%
    11:00 +19°C° 0 mm 3 mps 584 mmHg 43%
    12:00 +19°C° 0.3 mm 3 mps 583 mmHg 49%
    13:00 +18°C° 0.3 mm 3 mps 582 mmHg 54%
    14:00 +17°C° 0.3 mm 3 mps 581 mmHg 59%
    15:00 +16°C° 0.7 mm 2 mps 581 mmHg 65%
    16:00 +15°C° 0.7 mm 2 mps 580 mmHg 71%
    17:00 +14°C° 0.7 mm 1 mps 580 mmHg 77%
    18:00 +13°C° 0.3 mm 1 mps 580 mmHg 79%
    19:00 +13°C° 0.3 mm 1 mps 581 mmHg 82%
    20:00 +12°C° 0.3 mm 1 mps 581 mmHg 84%
    21:00 +12°C° 0.1 mm 1 mps 581 mmHg 87%
    22:00 +11°C° 0.1 mm 1 mps 581 mmHg 90%
    23:00 +11°C° 0.1 mm 1 mps 581 mmHg 92%

    27 January, Monday

    Time Temperature Precipitation Wind Pressure Humidity
    00:00 +11°C° 0.1 mm 1 mps 580 mmHg 93%
    01:00 +9°C° 0.1 mm 0 mps 580 mmHg 93%
    02:00 +9°C° 0.1 mm 0 mps 580 mmHg 93%
    03:00 +9°C° 0 mm 0 mps 579 mmHg 93%
    04:00 +8°C° 0 mm 0 mps 579 mmHg 93%
    05:00 +8°C° 0 mm 0 mps 579 mmHg 93%
    06:00 +9°C° 0 mm 0 mps 580 mmHg 89%
    07:00 +10°C° 0 mm 0 mps 581 mmHg 84%
    08:00 +12°C° 0 mm 1 mps 581 mmHg 80%
    09:00 +14°C° 0 mm 1 mps 582 mmHg 69%
    10:00 +16°C° 0 mm 1 mps 583 mmHg 58%
    11:00 +18°C° 0 mm 2 mps 583 mmHg 47%
    12:00 +18°C° 0 mm 2 mps 583 mmHg 47%
    13:00 +18°C° 0 mm 2 mps 582 mmHg 47%
    14:00 +18°C° 0 mm 3 mps 581 mmHg 47%
    15:00 +17°C° 0 mm 2 mps 581 mmHg 55%
    16:00 +15°C° 0 mm 2 mps 580 mmHg 64%
    17:00 +14°C° 0 mm 1 mps 579 mmHg 72%
    18:00 +13°C° 0 mm 1 mps 579 mmHg 75%
    19:00 +12°C° 0 mm 1 mps 579 mmHg 79%
    20:00 +10°C° 0 mm 0 mps 579 mmHg 82%
    21:00 +11°C° 0 mm 1 mps 579 mmHg 77%
    22:00 +11°C° 0 mm 1 mps 579 mmHg 72%
    23:00 +10°C° 0 mm 2 mps 579 mmHg 66%
    Show more